Regional Weather Roundup
Issued by NWS Goodland, KS

Home | Current Version | Previous Version | Graphics & Text | Print | Product List | Glossary Off
Versions: 1 2 3 4 5 6 7 8 9 10 11 12 13 14 15 16 17 18 19 20 21 22 23 24 25 26 27 28 29 30 31 32 33 34 35 36 37 38 39 40 41 42 43 44 45 46 47 48 49 50

000
ASUS43 KGLD 190659
RWRGLD

GOODLAND FORECAST AREA HOURLY WEATHER ROUNDUP
NATIONAL WEATHER SERVICE GOODLAND KS
100 AM MDT SAT APR 19 2014

...OFFICIAL OBSERVATIONS...

CITY           SKY/WX    TMP DP  RH WIND       PRES   REMARKS
GOODLAND KS    MOCLDY    53  44  71 S23       29.90F
HILL CITY KS   PTCLDY    56  45  66 S15G23    29.97F
IMPERIAL NEB   MOCLDY    56  42  59 S20G26    29.86F
MCCOOK NEB     CLOUDY    56  43  61 S16G28    29.90F
AKRON CO       MOCLDY    53  39  59 S13       29.86S
BURLINGTON CO  PTCLDY    53  41  63 S17       29.89F
LIMON CO       MOCLDY    45  35  68 SE5       29.93S
$$

...UNOFFICIAL OBSERVATIONS...

CITY           SKY/WX    TMP DP  RH WIND       PRES   REMARKS
COLBY KS       CLEAR     55  46  71 S17G26    29.92F
LENORA KS        N/A     55  32  41 S18         N/A
LEOTI KS         N/A     55  32  42 S13         N/A
NORTON KS      CLEAR     54  43  66 SE14G20   29.94F
SHARON SPRINGS   N/A     53  45  74 S16         N/A
WAKEENEY KS      N/A     55  43  63 MISG        N/A
KIT CARSON CO    N/A     54  41  61 MISG        N/A
$$



USA.gov is the U.S. government's official web portal to all federal, state and local government web resources and services.